Time,TemperatureF,DewpointF,PressureIn,WindDirection,WindDirectionDegrees,WindSpeedMPH,WindSpeedGustMPH,Humidity,HourlyPrecipIn,Conditions,Clouds,dailyrainin,SoftwareType,DateUTC
2013-03-05 00:00:00,46.0,42.6,30.16,WNW,292,0.0,0.0,88,0.00,,,0.00,WeatherTracker,2013-03-05 05:00:00,
2013-03-05 00:05:00,46.0,42.6,30.16,WNW,292,0.0,0.0,88,0.00,,,0.00,WeatherTracker,2013-03-05 05:05:00,
2013-03-05 00:10:00,46.0,42.6,30.16,WNW,292,0.0,0.0,88,0.00,,,0.00,WeatherTracker,2013-03-05 05:10:00,
2013-03-05 00:15:00,46.1,42.7,30.16,WNW,292,0.0,0.0,88,0.00,,,0.00,WeatherTracker,2013-03-05 05:15:00,
2013-03-05 00:20:00,46.0,42.6,30.16,WNW,292,0.0,0.0,88,0.00,,,0.00,WeatherTracker,2013-03-05 05:20:00,
2013-03-05 00:25:00,45.9,42.5,30.15,WNW,292,0.0,0.0,88,0.00,,,0.00,WeatherTracker,2013-03-05 05:25:00,
2013-03-05 00:30:00,45.8,42.5,30.15,WNW,292,0.0,0.0,88,0.00,,,0.00,WeatherTracker,2013-03-05 05:30:00,
2013-03-05 00:35:00,45.8,42.7,30.15,WNW,292,0.0,0.0,89,0.00,,,0.00,WeatherTracker,2013-03-05 05:35:00,
2013-03-05 00:40:00,45.7,42.6,30.15,WNW,292,0.0,0.0,89,0.00,,,0.00,WeatherTracker,2013-03-05 05:40:00,
2013-03-05 00:45:00,45.6,42.5,30.15,WNW,292,0.0,0.0,89,0.00,,,0.00,WeatherTracker,2013-03-05 05:45:00,
2013-03-05 00:50:00,45.5,42.7,30.15,WNW,292,0.0,0.0,90,0.00,,,0.00,WeatherTracker,2013-03-05 05:50:00,
2013-03-05 00:55:00,45.5,42.7,30.14,WNW,292,0.0,0.0,90,0.00,,,0.00,WeatherTracker,2013-03-05 05:55:00,
2013-03-05 01:00:00,45.6,42.8,30.14,WNW,300,0.0,0.0,90,0.00,,,0.00,WeatherTracker,2013-03-05 06:00:00,
2013-03-05 01:05:00,45.6,42.8,30.14,WNW,300,0.0,0.0,90,0.00,,,0.00,WeatherTracker,2013-03-05 06:05:00,
2013-03-05 01:10:00,45.7,42.9,30.14,NNE,28,0.0,0.0,90,0.00,,,0.00,WeatherTracker,2013-03-05 06:10:00,
2013-03-05 01:15:00,45.7,42.6,30.14,NNE,28,0.0,0.0,89,0.00,,,0.00,WeatherTracker,2013-03-05 06:15:00,
2013-03-05 01:23:00,45.8,42.5,30.14,NNE,28,0.0,0.0,88,0.00,,,0.00,WeatherTracker,2013-03-05 06:23:00,
2013-03-05 01:28:00,45.8,42.2,30.14,NNE,28,0.0,0.0,87,0.00,,,0.00,WeatherTracker,2013-03-05 06:28:00,
2013-03-05 01:33:00,45.9,42.3,30.14,NNE,28,0.0,0.0,87,0.00,,,0.00,WeatherTracker,2013-03-05 06:33:00,
2013-03-05 01:38:00,45.9,42.3,30.14,NNE,28,0.0,0.0,87,0.00,,,0.00,WeatherTracker,2013-03-05 06:38:00,
2013-03-05 01:43:00,45.8,41.9,30.14,NNE,28,0.0,0.0,86,0.00,,,0.00,WeatherTracker,2013-03-05 06:43:00,
2013-03-05 01:48:00,45.7,41.8,30.15,NNE,28,0.0,0.0,86,0.00,,,0.00,WeatherTracker,2013-03-05 06:48:00,
2013-03-05 01:53:00,45.6,41.7,30.14,NNE,28,0.0,0.0,86,0.00,,,0.00,WeatherTracker,2013-03-05 06:53:00,
2013-03-05 01:58:00,45.5,41.6,30.14,NNE,28,0.0,0.0,86,0.00,,,0.00,WeatherTracker,2013-03-05 06:58:00,
2013-03-05 02:03:00,45.4,41.5,30.14,NNE,28,0.0,0.0,86,0.00,,,0.00,WeatherTracker,2013-03-05 07:03:00,
2013-03-05 02:08:00,45.1,41.2,30.14,NNE,28,0.0,0.0,86,0.00,,,0.00,WeatherTracker,2013-03-05 07:08:00,
2013-03-05 02:13:00,44.8,41.2,30.14,NNE,28,0.0,0.0,87,0.00,,,0.00,WeatherTracker,2013-03-05 07:13:00,
2013-03-05 02:18:00,44.6,41.3,30.14,NNE,28,0.0,0.0,88,0.00,,,0.00,WeatherTracker,2013-03-05 07:18:00,
2013-03-05 02:23:00,44.5,41.2,30.14,NNE,28,0.0,0.0,88,0.00,,,0.00,WeatherTracker,2013-03-05 07:23:00,
2013-03-05 02:29:00,44.4,41.1,30.14,NNE,28,0.0,0.0,88,0.00,,,0.00,WeatherTracker,2013-03-05 07:29:00,
2013-03-05 02:34:00,44.3,41.0,30.14,NNE,28,0.0,0.0,88,0.00,,,0.00,WeatherTracker,2013-03-05 07:34:00,
2013-03-05 02:39:00,44.3,41.0,30.14,NNE,28,0.0,0.0,88,0.00,,,0.00,WeatherTracker,2013-03-05 07:39:00,
2013-03-05 02:44:00,44.2,40.9,30.14,NNE,28,0.0,0.0,88,0.00,,,0.00,WeatherTracker,2013-03-05 07:44:00,
2013-03-05 02:49:00,44.2,40.9,30.14,NNE,28,0.0,0.0,88,0.00,,,0.00,WeatherTracker,2013-03-05 07:49:00,
2013-03-05 02:54:00,44.1,40.5,30.14,NNE,28,0.0,0.0,87,0.00,,,0.00,WeatherTracker,2013-03-05 07:54:00,
2013-03-05 02:59:00,44.1,40.8,30.14,NNE,28,0.0,0.0,88,0.00,,,0.00,WeatherTracker,2013-03-05 07:59:00,
2013-03-05 03:04:00,44.0,40.4,30.14,NNE,28,0.0,0.0,87,0.00,,,0.00,WeatherTracker,2013-03-05 08:04:00,
2013-03-05 03:09:00,43.9,40.3,30.13,NNE,28,0.0,0.0,87,0.00,,,0.00,WeatherTracker,2013-03-05 08:09:00,
2013-03-05 03:14:00,43.8,40.5,30.13,NNE,28,0.0,0.0,88,0.00,,,0.00,WeatherTracker,2013-03-05 08:14:00,
2013-03-05 03:19:00,43.6,40.3,30.13,NNE,28,0.0,0.0,88,0.00,,,0.00,WeatherTracker,2013-03-05 08:19:00,
2013-03-05 03:24:00,43.5,40.2,30.13,NNE,28,0.0,0.0,88,0.00,,,0.00,WeatherTracker,2013-03-05 08:24:00,
2013-03-05 03:29:00,43.4,40.1,30.13,NNE,28,0.0,0.0,88,0.00,,,0.00,WeatherTracker,2013-03-05 08:29:00,
2013-03-05 03:34:00,43.3,40.0,30.13,NNE,28,0.0,0.0,88,0.00,,,0.00,WeatherTracker,2013-03-05 08:34:00,
2013-03-05 03:39:00,43.3,40.3,30.13,NNE,28,0.0,0.0,89,0.00,,,0.00,WeatherTracker,2013-03-05 08:39:00,
2013-03-05 03:44:00,43.2,40.2,30.13,NNE,28,0.0,0.0,89,0.00,,,0.00,WeatherTracker,2013-03-05 08:44:00,
2013-03-05 03:49:00,43.2,40.2,30.13,NNE,28,0.0,0.0,89,0.00,,,0.00,WeatherTracker,2013-03-05 08:49:00,
2013-03-05 03:54:00,43.2,40.5,30.13,NNE,28,0.0,0.0,90,0.00,,,0.00,WeatherTracker,2013-03-05 08:54:00,
2013-03-05 03:59:00,43.2,40.5,30.13,NNE,28,0.0,0.0,90,0.00,,,0.00,WeatherTracker,2013-03-05 08:59:00,
2013-03-05 04:04:00,43.2,40.5,30.13,NNE,28,0.0,0.0,90,0.00,,,0.00,WeatherTracker,2013-03-05 09:04:00,
2013-03-05 04:09:00,43.3,40.6,30.13,NNE,28,0.0,0.0,90,0.00,,,0.00,WeatherTracker,2013-03-05 09:09:00,
2013-03-05 04:14:00,43.4,41.0,30.13,NNE,28,0.0,0.0,91,0.00,,,0.00,WeatherTracker,2013-03-05 09:14:00,
2013-03-05 04:19:00,43.4,40.7,30.13,NNE,28,0.0,0.0,90,0.00,,,0.00,WeatherTracker,2013-03-05 09:19:00,
2013-03-05 04:24:00,43.5,40.8,30.13,NNE,28,0.0,0.0,90,0.00,,,0.00,WeatherTracker,2013-03-05 09:24:00,
2013-03-05 04:30:00,43.5,40.8,30.13,NNE,28,0.0,0.0,90,0.00,,,0.00,WeatherTracker,2013-03-05 09:30:00,
2013-03-05 04:35:00,43.5,40.8,30.13,NNE,28,0.0,0.0,90,0.00,,,0.00,WeatherTracker,2013-03-05 09:35:00,
2013-03-05 04:40:00,43.5,40.8,30.13,NNE,28,0.0,0.0,90,0.00,,,0.00,WeatherTracker,2013-03-05 09:40:00,
2013-03-05 04:45:00,43.5,40.8,30.13,NNE,28,0.0,0.0,90,0.00,,,0.00,WeatherTracker,2013-03-05 09:45:00,
2013-03-05 04:50:00,43.4,40.7,30.13,NNE,28,0.0,0.0,90,0.00,,,0.00,WeatherTracker,2013-03-05 09:50:00,
2013-03-05 04:55:00,43.5,40.8,30.13,NNE,28,0.0,0.0,90,0.00,,,0.00,WeatherTracker,2013-03-05 09:55:00,
2013-03-05 05:00:00,43.4,40.7,30.14,NNE,28,0.0,0.0,90,0.00,,,0.00,WeatherTracker,2013-03-05 10:00:00,
2013-03-05 05:05:00,43.5,40.8,30.14,NNE,28,0.0,0.0,90,0.00,,,0.00,WeatherTracker,2013-03-05 10:05:00,
2013-03-05 05:10:00,43.6,40.9,30.14,NNE,28,0.0,0.0,90,0.00,,,0.00,WeatherTracker,2013-03-05 10:10:00,
2013-03-05 05:15:00,43.5,40.8,30.14,NNE,28,0.0,0.0,90,0.00,,,0.00,WeatherTracker,2013-03-05 10:15:00,
2013-03-05 05:20:00,43.5,40.8,30.14,NNE,28,0.0,0.0,90,0.00,,,0.00,WeatherTracker,2013-03-05 10:20:00,
2013-03-05 05:25:00,43.4,40.7,30.14,NNE,28,0.0,0.0,90,0.00,,,0.00,WeatherTracker,2013-03-05 10:25:00,
2013-03-05 05:30:00,43.3,40.6,30.14,NNE,28,0.0,0.0,90,0.00,,,0.00,WeatherTracker,2013-03-05 10:30:00,
2013-03-05 05:35:00,43.4,40.7,30.14,NE,36,0.0,0.0,90,0.00,,,0.00,WeatherTracker,2013-03-05 10:35:00,
2013-03-05 05:40:00,43.4,40.7,30.14,NE,54,0.0,0.0,90,0.00,,,0.00,WeatherTracker,2013-03-05 10:40:00,
2013-03-05 05:45:00,43.5,40.8,30.14,NE,54,0.0,0.0,90,0.00,,,0.00,WeatherTracker,2013-03-05 10:45:00,
2013-03-05 05:50:00,43.6,40.9,30.14,NE,54,0.0,0.0,90,0.00,,,0.00,WeatherTracker,2013-03-05 10:50:00,
2013-03-05 05:55:00,43.6,40.9,30.14,NE,54,0.0,0.0,90,0.00,,,0.00,WeatherTracker,2013-03-05 10:55:00,
2013-03-05 06:00:00,43.7,41.0,30.14,NE,54,0.0,0.0,90,0.00,,,0.00,WeatherTracker,2013-03-05 11:00:00,
2013-03-05 06:05:00,43.7,41.0,30.14,NE,54,0.0,0.0,90,0.00,,,0.00,WeatherTracker,2013-03-05 11:05:00,
2013-03-05 06:10:00,43.8,40.8,30.14,NE,54,0.0,0.0,89,0.00,,,0.00,WeatherTracker,2013-03-05 11:10:00,
2013-03-05 06:15:00,43.8,41.1,30.14,NE,54,0.0,0.0,90,0.00,,,0.00,WeatherTracker,2013-03-05 11:15:00,
2013-03-05 06:21:00,43.9,41.2,30.15,NE,54,0.0,0.0,90,0.00,,,0.00,WeatherTracker,2013-03-05 11:21:00,
2013-03-05 06:26:00,43.9,40.9,30.15,NE,54,0.0,0.0,89,0.00,,,0.00,WeatherTracker,2013-03-05 11:26:00,
2013-03-05 06:31:00,43.8,40.8,30.14,NE,54,0.0,0.0,89,0.00,,,0.00,WeatherTracker,2013-03-05 11:31:00,
2013-03-05 06:36:00,43.8,41.1,30.15,NE,54,0.0,0.0,90,0.00,,,0.00,WeatherTracker,2013-03-05 11:36:00,
2013-03-05 06:41:00,43.9,41.2,30.15,NE,54,0.0,0.0,90,0.00,,,0.00,WeatherTracker,2013-03-05 11:41:00,
2013-03-05 06:46:00,43.9,40.9,30.15,NE,54,0.0,0.0,89,0.00,,,0.00,WeatherTracker,2013-03-05 11:46:00,
2013-03-05 06:51:00,43.9,40.9,30.15,NE,54,0.0,0.0,89,0.00,,,0.00,WeatherTracker,2013-03-05 11:51:00,
2013-03-05 06:56:00,43.9,41.2,30.16,NE,54,0.0,0.0,90,0.00,,,0.00,WeatherTracker,2013-03-05 11:56:00,
2013-03-05 07:01:00,43.9,41.2,30.16,NE,54,0.0,0.0,90,0.00,,,0.00,WeatherTracker,2013-03-05 12:01:00,
2013-03-05 07:06:00,43.9,41.2,30.16,NE,54,0.0,0.0,90,0.00,,,0.00,WeatherTracker,2013-03-05 12:06:00,
2013-03-05 07:11:00,43.9,41.2,30.16,NE,54,0.0,0.0,90,0.00,,,0.00,WeatherTracker,2013-03-05 12:11:00,
2013-03-05 07:16:00,44.0,41.3,30.16,NE,54,0.0,0.0,90,0.00,,,0.00,WeatherTracker,2013-03-05 12:16:00,
2013-03-05 07:21:00,44.3,41.6,30.16,NE,54,1.0,0.0,90,0.00,,,0.00,WeatherTracker,2013-03-05 12:21:00,
2013-03-05 07:26:00,44.7,41.9,30.16,NE,54,0.0,0.0,90,0.00,,,0.00,WeatherTracker,2013-03-05 12:26:00,
2013-03-05 07:31:00,45.2,42.4,30.16,NE,54,0.0,0.0,90,0.00,,,0.00,WeatherTracker,2013-03-05 12:31:00,
2013-03-05 07:36:00,45.7,42.6,30.17,NE,54,0.0,0.0,89,0.00,,,0.00,WeatherTracker,2013-03-05 12:36:00,
2013-03-05 07:41:00,46.5,43.1,30.17,ESE,111,0.0,0.0,88,0.00,,,0.00,WeatherTracker,2013-03-05 12:41:00,
2013-03-05 07:46:00,47.3,43.6,30.17,ESE,109,0.0,0.0,87,0.00,,,0.00,WeatherTracker,2013-03-05 12:46:00,
2013-03-05 07:51:00,48.1,44.1,30.17,ESE,116,0.0,0.0,86,0.00,,,0.00,WeatherTracker,2013-03-05 12:51:00,
2013-03-05 07:56:00,48.8,44.2,30.16,ESE,121,4.0,0.0,84,0.00,,,0.00,WeatherTracker,2013-03-05 12:56:00,
2013-03-05 08:01:00,49.5,44.9,30.16,East,89,0.0,0.0,84,0.00,,,0.00,WeatherTracker,2013-03-05 13:01:00,
2013-03-05 08:06:00,50.3,45.3,30.16,ESE,107,0.0,0.0,83,0.00,,,0.00,WeatherTracker,2013-03-05 13:06:00,
2013-03-05 08:11:00,51.1,45.8,30.17,East,95,0.0,0.0,82,0.00,,,0.00,WeatherTracker,2013-03-05 13:11:00,
2013-03-05 08:16:00,52.0,45.7,30.17,SSE,165,0.0,0.0,79,0.00,,,0.00,WeatherTracker,2013-03-05 13:16:00,
2013-03-05 08:21:00,52.8,45.8,30.17,SE,130,1.0,0.0,77,0.00,,,0.00,WeatherTracker,2013-03-05 13:21:00,
2013-03-05 08:27:00,53.7,46.3,30.17,SE,130,0.0,0.0,76,0.00,,,0.00,WeatherTracker,2013-03-05 13:27:00,
2013-03-05 08:32:00,54.8,47.0,30.17,ESE,108,0.0,0.0,75,0.00,,,0.00,WeatherTracker,2013-03-05 13:32:00,
2013-03-05 08:37:00,55.8,47.6,30.17,South,169,0.0,0.0,74,0.00,,,0.00,WeatherTracker,2013-03-05 13:37:00,
2013-03-05 08:42:00,56.9,48.3,30.17,SSE,157,0.0,0.0,73,0.00,,,0.00,WeatherTracker,2013-03-05 13:42:00,
2013-03-05 08:47:00,57.9,49.3,30.17,South,174,2.0,0.0,73,0.00,,,0.00,WeatherTracker,2013-03-05 13:47:00,
2013-03-05 08:52:00,58.7,50.1,30.17,SE,128,1.0,0.0,73,0.00,,,0.00,WeatherTracker,2013-03-05 13:52:00,
2013-03-05 08:57:00,59.5,50.5,30.17,South,175,3.0,0.0,72,0.00,,,0.00,WeatherTracker,2013-03-05 13:57:00,
2013-03-05 09:02:00,60.0,50.6,30.17,SSE,149,0.0,0.0,71,0.00,,,0.00,WeatherTracker,2013-03-05 14:02:00,
2013-03-05 09:07:00,60.8,51.3,30.17,SSE,164,1.0,0.0,71,0.00,,,0.00,WeatherTracker,2013-03-05 14:07:00,
2013-03-05 09:12:00,61.3,52.2,30.17,SE,140,1.0,0.0,72,0.00,,,0.00,WeatherTracker,2013-03-05 14:12:00,
2013-03-05 09:17:00,62.0,52.5,30.17,East,92,1.0,0.0,71,0.00,,,0.00,WeatherTracker,2013-03-05 14:17:00,
2013-03-05 09:22:00,62.7,53.2,30.17,SE,126,0.0,0.0,71,0.00,,,0.00,WeatherTracker,2013-03-05 14:22:00,
2013-03-05 09:27:00,63.3,53.7,30.17,SSE,159,1.0,0.0,71,0.00,,,0.00,WeatherTracker,2013-03-05 14:27:00,
2013-03-05 09:32:00,63.7,53.3,30.18,South,176,3.0,0.0,69,0.00,,,0.00,WeatherTracker,2013-03-05 14:32:00,
2013-03-05 09:37:00,64.0,53.6,30.17,SE,125,0.0,0.0,69,0.00,,,0.00,WeatherTracker,2013-03-05 14:37:00,
2013-03-05 09:42:00,64.7,54.7,30.17,South,191,1.0,0.0,70,0.00,,,0.00,WeatherTracker,2013-03-05 14:42:00,
2013-03-05 09:47:00,65.4,55.0,30.17,SE,136,3.0,0.0,69,0.00,,,0.00,WeatherTracker,2013-03-05 14:47:00,
2013-03-05 09:52:00,65.8,56.1,30.17,SSW,207,0.0,0.0,71,0.00,,,0.00,WeatherTracker,2013-03-05 14:52:00,
2013-03-05 09:57:00,66.6,56.9,30.17,SSW,213,1.0,0.0,71,0.00,,,0.00,WeatherTracker,2013-03-05 14:57:00,
2013-03-05 10:02:00,67.0,56.5,30.17,South,170,1.0,0.0,69,0.00,,,0.00,WeatherTracker,2013-03-05 15:02:00,
2013-03-05 10:07:00,67.2,56.7,30.17,East,96,2.0,0.0,69,0.00,,,0.00,WeatherTracker,2013-03-05 15:07:00,
2013-03-05 10:13:00,67.6,57.1,30.18,SW,225,2.0,0.0,69,0.00,,,0.00,WeatherTracker,2013-03-05 15:13:00,
2013-03-05 10:18:00,68.1,57.1,30.18,South,180,4.0,0.0,68,0.00,,,0.00,WeatherTracker,2013-03-05 15:18:00,
2013-03-05 10:23:00,68.5,57.1,30.18,South,191,4.0,0.0,67,0.00,,,0.00,WeatherTracker,2013-03-05 15:23:00,
2013-03-05 10:28:00,69.0,57.2,30.18,SE,139,4.0,0.0,66,0.00,,,0.00,WeatherTracker,2013-03-05 15:28:00,
2013-03-05 10:33:00,69.4,57.5,30.18,ESE,119,4.0,0.0,66,0.00,,,0.00,WeatherTracker,2013-03-05 15:33:00,
2013-03-05 10:38:00,69.6,57.7,30.18,SSW,209,0.0,0.0,66,0.00,,,0.00,WeatherTracker,2013-03-05 15:38:00,
2013-03-05 10:43:00,70.0,57.7,30.18,ESE,109,0.0,0.0,65,0.00,,,0.00,WeatherTracker,2013-03-05 15:43:00,
2013-03-05 10:48:00,69.8,57.5,30.17,South,188,2.0,0.0,65,0.00,,,0.00,WeatherTracker,2013-03-05 15:48:00,
2013-03-05 10:53:00,69.8,57.9,30.18,SW,235,1.0,0.0,66,0.00,,,0.00,WeatherTracker,2013-03-05 15:53:00,
2013-03-05 10:58:00,70.3,57.5,30.17,South,182,1.0,0.0,64,0.00,,,0.00,WeatherTracker,2013-03-05 15:58:00,
2013-03-05 11:03:00,70.6,57.8,30.17,SW,223,1.0,0.0,64,0.00,,,0.00,WeatherTracker,2013-03-05 16:03:00,
2013-03-05 11:08:00,70.8,58.0,30.17,SSE,159,1.0,0.0,64,0.00,,,0.00,WeatherTracker,2013-03-05 16:08:00,
2013-03-05 11:13:00,71.1,58.3,30.17,SSE,157,4.0,0.0,64,0.00,,,0.00,WeatherTracker,2013-03-05 16:13:00,
2013-03-05 11:18:00,71.4,58.1,30.16,SSW,193,2.0,0.0,63,0.00,,,0.00,WeatherTracker,2013-03-05 16:18:00,
2013-03-05 11:23:00,71.9,58.6,30.16,SSW,194,0.0,0.0,63,0.00,,,0.00,WeatherTracker,2013-03-05 16:23:00,
2013-03-05 11:28:00,72.1,58.3,30.16,SW,217,1.0,0.0,62,0.00,,,0.00,WeatherTracker,2013-03-05 16:28:00,
2013-03-05 11:33:00,72.2,59.3,30.16,WSW,246,1.0,0.0,64,0.00,,,0.00,WeatherTracker,2013-03-05 16:33:00,
2013-03-05 11:38:00,72.6,58.4,30.16,SSE,160,6.0,0.0,61,0.00,,,0.00,WeatherTracker,2013-03-05 16:38:00,
2013-03-05 11:43:00,72.7,58.5,30.17,WSW,249,2.0,0.0,61,0.00,,,0.00,WeatherTracker,2013-03-05 16:43:00,
2013-03-05 11:48:00,72.5,58.3,30.17,SSE,159,0.0,0.0,61,0.00,,,0.00,WeatherTracker,2013-03-05 16:48:00,
2013-03-05 11:53:00,72.6,57.9,30.17,SSW,210,0.0,0.0,60,0.00,,,0.00,WeatherTracker,2013-03-05 16:53:00,
2013-03-05 11:58:00,72.7,57.5,30.17,WNW,288,0.0,0.0,59,0.00,,,0.00,WeatherTracker,2013-03-05 16:58:00,
2013-03-05 12:03:00,72.6,57.9,30.17,SE,146,0.0,0.0,60,0.00,,,0.00,WeatherTracker,2013-03-05 17:03:00,
2013-03-05 12:08:00,72.7,57.1,30.16,SSW,197,2.0,0.0,58,0.00,,,0.00,WeatherTracker,2013-03-05 17:08:00,
2013-03-05 12:13:00,73.0,56.9,30.15,SSE,164,2.0,0.0,57,0.00,,,0.00,WeatherTracker,2013-03-05 17:13:00,
2013-03-05 12:18:00,73.0,56.9,30.15,South,186,2.0,0.0,57,0.00,,,0.00,WeatherTracker,2013-03-05 17:18:00,
2013-03-05 12:24:00,73.2,57.0,30.15,SSE,168,0.0,0.0,57,0.00,,,0.00,WeatherTracker,2013-03-05 17:24:00,
2013-03-05 12:29:00,73.7,57.5,30.15,West,260,0.0,0.0,57,0.00,,,0.00,WeatherTracker,2013-03-05 17:29:00,
2013-03-05 12:34:00,73.8,57.1,30.15,West,259,1.0,0.0,56,0.00,,,0.00,WeatherTracker,2013-03-05 17:34:00,
2013-03-05 12:39:00,73.5,56.8,30.15,SSW,193,1.0,0.0,56,0.00,,,0.00,WeatherTracker,2013-03-05 17:39:00,
2013-03-05 12:44:00,73.6,57.4,30.14,ESE,109,4.0,0.0,57,0.00,,,0.00,WeatherTracker,2013-03-05 17:44:00,
2013-03-05 12:49:00,73.7,57.0,30.14,NNW,346,2.0,0.0,56,0.00,,,0.00,WeatherTracker,2013-03-05 17:49:00,
2013-03-05 12:54:00,74.1,57.9,30.14,WSW,237,0.0,0.0,57,0.00,,,0.00,WeatherTracker,2013-03-05 17:54:00,
2013-03-05 12:59:00,74.5,57.3,30.14,SSW,213,0.0,0.0,55,0.00,,,0.00,WeatherTracker,2013-03-05 17:59:00,
2013-03-05 13:04:00,74.6,58.3,30.14,WNW,294,2.0,0.0,57,0.00,,,0.00,WeatherTracker,2013-03-05 18:04:00,
2013-03-05 13:09:00,74.6,57.9,30.14,SW,219,1.0,0.0,56,0.00,,,0.00,WeatherTracker,2013-03-05 18:09:00,
2013-03-05 13:14:00,74.3,58.5,30.13,ESE,118,1.0,0.0,58,0.00,,,0.00,WeatherTracker,2013-03-05 18:14:00,
2013-03-05 13:19:00,74.2,58.0,30.13,ESE,115,1.0,0.0,57,0.00,,,0.00,WeatherTracker,2013-03-05 18:19:00,
2013-03-05 13:24:00,74.2,57.5,30.13,East,83,0.0,0.0,56,0.00,,,0.00,WeatherTracker,2013-03-05 18:24:00,
2013-03-05 13:29:00,74.4,57.7,30.13,South,190,2.0,0.0,56,0.00,,,0.00,WeatherTracker,2013-03-05 18:29:00,
2013-03-05 13:34:00,74.6,58.3,30.13,SW,222,4.0,0.0,57,0.00,,,0.00,WeatherTracker,2013-03-05 18:34:00,
2013-03-05 13:39:00,74.7,57.9,30.12,SSW,195,0.0,0.0,56,0.00,,,0.00,WeatherTracker,2013-03-05 18:39:00,
2013-03-05 13:44:00,74.5,57.8,30.12,SW,217,1.0,0.0,56,0.00,,,0.00,WeatherTracker,2013-03-05 18:44:00,
2013-03-05 13:49:00,74.3,58.1,30.12,NW,312,6.0,0.0,57,0.00,,,0.00,WeatherTracker,2013-03-05 18:49:00,
2013-03-05 13:54:00,74.2,57.5,30.12,ESE,118,4.0,0.0,56,0.00,,,0.00,WeatherTracker,2013-03-05 18:54:00,
2013-03-05 13:59:00,73.7,58.0,30.12,SSW,199,4.0,0.0,58,0.00,,,0.00,WeatherTracker,2013-03-05 18:59:00,
2013-03-05 14:04:00,73.4,58.2,30.11,SSW,197,5.0,0.0,59,0.00,,,0.00,WeatherTracker,2013-03-05 19:04:00,
2013-03-05 14:09:00,73.4,58.2,30.11,West,280,1.0,0.0,59,0.00,,,0.00,WeatherTracker,2013-03-05 19:09:00,
2013-03-05 14:14:00,73.6,58.4,30.11,SW,217,2.0,0.0,59,0.00,,,0.00,WeatherTracker,2013-03-05 19:14:00,
2013-03-05 14:19:00,73.7,58.5,30.11,South,175,1.0,0.0,59,0.00,,,0.00,WeatherTracker,2013-03-05 19:19:00,
2013-03-05 14:24:00,73.8,58.6,30.11,SSW,192,5.0,0.0,59,0.00,,,0.00,WeatherTracker,2013-03-05 19:24:00,
2013-03-05 14:29:00,73.5,58.7,30.10,SW,224,2.0,0.0,60,0.00,,,0.00,WeatherTracker,2013-03-05 19:29:00,
2013-03-05 14:34:00,73.7,58.9,30.10,West,268,3.0,0.0,60,0.00,,,0.00,WeatherTracker,2013-03-05 19:34:00,
2013-03-05 14:39:00,73.6,58.8,30.10,WSW,240,4.0,0.0,60,0.00,,,0.00,WeatherTracker,2013-03-05 19:39:00,
2013-03-05 14:45:00,73.8,59.5,30.10,SW,229,3.0,0.0,61,0.00,,,0.00,WeatherTracker,2013-03-05 19:45:00,
2013-03-05 14:50:00,73.5,58.7,30.11,WSW,250,4.0,0.0,60,0.00,,,0.00,WeatherTracker,2013-03-05 19:50:00,
2013-03-05 14:55:00,73.2,59.4,30.10,WNW,302,3.0,0.0,62,0.00,,,0.00,WeatherTracker,2013-03-05 19:55:00,
2013-03-05 15:00:00,73.0,59.2,30.11,South,189,1.0,0.0,62,0.00,,,0.00,WeatherTracker,2013-03-05 20:00:00,
2013-03-05 15:05:00,73.0,59.6,30.10,SW,234,6.0,0.0,63,0.00,,,0.00,WeatherTracker,2013-03-05 20:05:00,
2013-03-05 15:10:00,72.9,59.1,30.10,WNW,290,1.0,0.0,62,0.00,,,0.00,WeatherTracker,2013-03-05 20:10:00,
2013-03-05 15:15:00,72.8,59.5,30.10,South,186,1.0,0.0,63,0.00,,,0.00,WeatherTracker,2013-03-05 20:15:00,
2013-03-05 15:20:00,72.7,59.4,30.10,South,173,5.0,0.0,63,0.00,,,0.00,WeatherTracker,2013-03-05 20:20:00,
2013-03-05 15:25:00,72.6,59.3,30.10,SSW,204,4.0,0.0,63,0.00,,,0.00,WeatherTracker,2013-03-05 20:25:00,
2013-03-05 15:30:00,72.5,59.6,30.10,WNW,294,2.0,0.0,64,0.00,,,0.00,WeatherTracker,2013-03-05 20:30:00,
2013-03-05 15:35:00,72.6,59.7,30.10,WSW,242,3.0,0.0,64,0.00,,,0.00,WeatherTracker,2013-03-05 20:35:00,
2013-03-05 15:40:00,72.4,59.5,30.10,SE,130,0.0,0.0,64,0.00,,,0.00,WeatherTracker,2013-03-05 20:40:00,
2013-03-05 15:45:00,72.4,60.0,30.10,WSW,243,2.0,0.0,65,0.00,,,0.00,WeatherTracker,2013-03-05 20:45:00,
2013-03-05 15:50:00,72.3,59.9,30.10,WSW,241,0.0,0.0,65,0.00,,,0.00,WeatherTracker,2013-03-05 20:50:00,
2013-03-05 15:55:00,72.2,59.8,30.10,WSW,239,0.0,0.0,65,0.00,,,0.00,WeatherTracker,2013-03-05 20:55:00,
2013-03-05 16:00:00,72.1,60.1,30.11,WSW,254,1.0,0.0,66,0.00,,,0.00,WeatherTracker,2013-03-05 21:00:00,
2013-03-05 16:05:00,71.9,59.9,30.11,WSW,258,3.0,0.0,66,0.00,,,0.00,WeatherTracker,2013-03-05 21:05:00,
2013-03-05 16:10:00,71.8,59.8,30.11,SSW,206,2.0,0.0,66,0.00,,,0.00,WeatherTracker,2013-03-05 21:10:00,
2013-03-05 16:15:00,71.6,59.6,30.11,WNW,284,4.0,0.0,66,0.00,,,0.00,WeatherTracker,2013-03-05 21:15:00,
2013-03-05 16:20:00,71.5,60.0,30.11,WSW,243,4.0,0.0,67,0.00,,,0.00,WeatherTracker,2013-03-05 21:20:00,
2013-03-05 16:25:00,71.4,59.9,30.11,WSW,256,0.0,0.0,67,0.00,,,0.00,WeatherTracker,2013-03-05 21:25:00,
2013-03-05 16:30:00,71.4,60.3,30.11,SW,234,1.0,0.0,68,0.00,,,0.00,WeatherTracker,2013-03-05 21:30:00,
2013-03-05 16:35:00,71.3,59.8,30.11,South,187,0.0,0.0,67,0.00,,,0.00,WeatherTracker,2013-03-05 21:35:00,
2013-03-05 16:40:00,71.2,60.1,30.11,SW,222,2.0,0.0,68,0.00,,,0.00,WeatherTracker,2013-03-05 21:40:00,
2013-03-05 16:45:00,71.0,59.9,30.10,South,180,1.0,0.0,68,0.00,,,0.00,WeatherTracker,2013-03-05 21:45:00,
2013-03-05 16:50:00,70.7,59.6,30.10,SSW,208,0.0,0.0,68,0.00,,,0.00,WeatherTracker,2013-03-05 21:50:00,
2013-03-05 16:55:00,70.5,59.4,30.11,SSW,194,0.0,0.0,68,0.00,,,0.00,WeatherTracker,2013-03-05 21:55:00,
2013-03-05 17:00:00,70.5,59.8,30.11,WSW,247,0.0,0.0,69,0.00,,,0.00,WeatherTracker,2013-03-05 22:00:00,
2013-03-05 17:06:00,70.4,59.7,30.11,South,171,1.0,0.0,69,0.00,,,0.00,WeatherTracker,2013-03-05 22:06:00,
2013-03-05 17:11:00,70.3,59.2,30.11,South,186,2.0,0.0,68,0.00,,,0.00,WeatherTracker,2013-03-05 22:11:00,
2013-03-05 17:16:00,70.0,58.9,30.10,WSW,249,0.0,0.0,68,0.00,,,0.00,WeatherTracker,2013-03-05 22:16:00,
2013-03-05 17:21:00,69.9,59.3,30.10,SSW,192,2.0,0.0,69,0.00,,,0.00,WeatherTracker,2013-03-05 22:21:00,
2013-03-05 17:26:00,69.6,59.0,30.11,SSW,208,0.0,0.0,69,0.00,,,0.00,WeatherTracker,2013-03-05 22:26:00,
2013-03-05 17:31:00,69.5,59.3,30.11,WSW,239,1.0,0.0,70,0.00,,,0.00,WeatherTracker,2013-03-05 22:31:00,
2013-03-05 17:36:00,69.3,59.1,30.11,SSE,166,1.0,0.0,70,0.00,,,0.00,WeatherTracker,2013-03-05 22:36:00,
2013-03-05 17:41:00,69.0,59.2,30.11,South,185,1.0,0.0,71,0.00,,,0.00,WeatherTracker,2013-03-05 22:41:00,
2013-03-05 17:46:00,68.7,59.3,30.11,South,175,4.0,0.0,72,0.00,,,0.00,WeatherTracker,2013-03-05 22:46:00,
2013-03-05 17:51:00,68.4,59.4,30.10,SSW,202,0.0,0.0,73,0.00,,,0.00,WeatherTracker,2013-03-05 22:51:00,
2013-03-05 17:56:00,68.1,59.1,30.10,SSW,211,1.0,0.0,73,0.00,,,0.00,WeatherTracker,2013-03-05 22:56:00,
2013-03-05 18:01:00,67.9,59.3,30.10,SW,216,0.0,0.0,74,0.00,,,0.00,WeatherTracker,2013-03-05 23:01:00,
2013-03-05 18:06:00,67.6,59.4,30.11,SSW,192,0.0,0.0,75,0.00,,,0.00,WeatherTracker,2013-03-05 23:06:00,
2013-03-05 18:11:00,67.4,59.6,30.10,South,181,0.0,0.0,76,0.00,,,0.00,WeatherTracker,2013-03-05 23:11:00,
2013-03-05 18:16:00,67.2,59.4,30.10,South,188,0.0,0.0,76,0.00,,,0.00,WeatherTracker,2013-03-05 23:16:00,
2013-03-05 18:21:00,67.0,59.5,30.10,South,180,0.0,0.0,77,0.00,,,0.00,WeatherTracker,2013-03-05 23:21:00,
2013-03-05 18:26:00,66.8,59.4,30.10,South,182,0.0,0.0,77,0.00,,,0.00,WeatherTracker,2013-03-05 23:26:00,
2013-03-05 18:31:00,66.5,59.4,30.10,South,183,0.0,0.0,78,0.00,,,0.00,WeatherTracker,2013-03-05 23:31:00,
2013-03-05 18:36:00,66.2,59.5,30.09,South,181,1.0,0.0,79,0.00,,,0.00,WeatherTracker,2013-03-05 23:36:00,
2013-03-05 18:41:00,66.0,59.3,30.09,South,186,0.0,0.0,79,0.00,,,0.00,WeatherTracker,2013-03-05 23:41:00,
2013-03-05 18:46:00,65.8,59.5,30.09,SSW,205,0.0,0.0,80,0.00,,,0.00,WeatherTracker,2013-03-05 23:46:00,
2013-03-05 18:51:00,65.6,59.3,30.09,SSW,205,0.0,0.0,80,0.00,,,0.00,WeatherTracker,2013-03-05 23:51:00,
2013-03-05 18:56:00,65.4,59.4,30.09,SSW,205,0.0,0.0,81,0.00,,,0.00,WeatherTracker,2013-03-05 23:56:00,
2013-03-05 19:01:00,65.2,59.2,30.09,SSW,205,0.0,0.0,81,0.00,,,0.00,WeatherTracker,2013-03-06 00:01:00,
2013-03-05 19:06:00,65.0,59.4,30.09,SSW,205,0.0,0.0,82,0.00,,,0.00,WeatherTracker,2013-03-06 00:06:00,
2013-03-05 19:11:00,64.8,59.2,30.09,SSW,205,0.0,0.0,82,0.00,,,0.00,WeatherTracker,2013-03-06 00:11:00,
2013-03-05 19:16:00,64.6,59.3,30.09,SSW,205,0.0,0.0,83,0.00,,,0.00,WeatherTracker,2013-03-06 00:16:00,
2013-03-05 19:22:00,64.4,59.1,30.09,SSW,205,0.0,0.0,83,0.00,,,0.00,WeatherTracker,2013-03-06 00:22:00,
2013-03-05 19:27:00,64.3,59.4,30.09,SSW,205,0.0,0.0,84,0.00,,,0.00,WeatherTracker,2013-03-06 00:27:00,
2013-03-05 19:32:00,64.1,59.2,30.09,SSW,205,0.0,0.0,84,0.00,,,0.00,WeatherTracker,2013-03-06 00:32:00,
2013-03-05 19:37:00,64.0,59.4,30.09,SSW,205,0.0,0.0,85,0.00,,,0.00,WeatherTracker,2013-03-06 00:37:00,
2013-03-05 19:42:00,63.8,59.2,30.09,SSW,205,0.0,0.0,85,0.00,,,0.00,WeatherTracker,2013-03-06 00:42:00,
2013-03-05 19:47:00,63.6,59.3,30.09,SW,214,0.0,0.0,86,0.00,,,0.00,WeatherTracker,2013-03-06 00:47:00,
2013-03-05 19:52:00,63.4,59.5,30.08,SW,214,0.0,0.0,87,0.00,,,0.00,WeatherTracker,2013-03-06 00:52:00,
2013-03-05 19:57:00,63.3,59.7,30.08,SW,214,0.0,0.0,88,0.00,,,0.00,WeatherTracker,2013-03-06 00:57:00,
2013-03-05 20:02:00,63.3,59.7,30.08,SSW,213,0.0,0.0,88,0.00,,,0.00,WeatherTracker,2013-03-06 01:02:00,
2013-03-05 20:07:00,63.2,59.6,30.08,SSW,213,0.0,0.0,88,0.00,,,0.00,WeatherTracker,2013-03-06 01:07:00,
2013-03-05 20:12:00,63.2,59.9,30.08,SSW,194,0.0,0.0,89,0.00,,,0.00,WeatherTracker,2013-03-06 01:12:00,
2013-03-05 20:17:00,63.2,59.9,30.08,SSW,193,0.0,0.0,89,0.00,,,0.00,WeatherTracker,2013-03-06 01:17:00,
2013-03-05 20:22:00,63.2,59.9,30.08,SSW,193,0.0,0.0,89,0.00,,,0.00,WeatherTracker,2013-03-06 01:22:00,
2013-03-05 20:27:00,63.3,60.0,30.08,South,190,0.0,0.0,89,0.00,,,0.00,WeatherTracker,2013-03-06 01:27:00,
2013-03-05 20:32:00,63.4,60.1,30.08,SSW,194,2.0,0.0,89,0.00,,,0.00,WeatherTracker,2013-03-06 01:32:00,
2013-03-05 20:37:00,63.5,60.5,30.08,South,188,0.0,0.0,90,0.00,,,0.00,WeatherTracker,2013-03-06 01:37:00,
2013-03-05 20:42:00,63.5,60.5,30.08,South,176,0.0,0.0,90,0.00,,,0.00,WeatherTracker,2013-03-06 01:42:00,
2013-03-05 20:47:00,63.6,60.6,30.08,South,184,0.0,0.0,90,0.00,,,0.00,WeatherTracker,2013-03-06 01:47:00,
2013-03-05 20:53:00,63.6,60.6,30.08,South,184,0.0,0.0,90,0.00,,,0.00,WeatherTracker,2013-03-06 01:53:00,
2013-03-05 20:58:00,63.7,61.0,30.08,South,175,0.0,0.0,91,0.00,,,0.00,WeatherTracker,2013-03-06 01:58:00,
2013-03-05 21:03:00,63.8,61.1,30.07,SSW,199,0.0,0.0,91,0.00,,,0.00,WeatherTracker,2013-03-06 02:03:00,
2013-03-05 21:08:00,63.8,61.1,30.07,South,189,0.0,0.0,91,0.00,,,0.00,WeatherTracker,2013-03-06 02:08:00,
2013-03-05 21:13:00,63.8,61.1,30.08,South,188,0.0,0.0,91,0.00,,,0.00,WeatherTracker,2013-03-06 02:13:00,
2013-03-05 21:18:00,63.8,60.8,30.08,SSE,168,0.0,0.0,90,0.00,,,0.00,WeatherTracker,2013-03-06 02:18:00,
2013-03-05 21:23:00,63.7,60.7,30.07,SSW,202,1.0,0.0,90,0.00,,,0.00,WeatherTracker,2013-03-06 02:23:00,
2013-03-05 21:28:00,63.8,60.8,30.07,South,177,2.0,0.0,90,0.00,,,0.00,WeatherTracker,2013-03-06 02:28:00,
2013-03-05 21:33:00,63.8,60.8,30.07,SSW,197,0.0,0.0,90,0.00,,,0.00,WeatherTracker,2013-03-06 02:33:00,
2013-03-05 21:38:00,63.8,60.8,30.07,SSW,198,5.0,0.0,90,0.00,,,0.00,WeatherTracker,2013-03-06 02:38:00,
2013-03-05 21:43:00,63.9,60.9,30.07,South,176,1.0,0.0,90,0.00,,,0.00,WeatherTracker,2013-03-06 02:43:00,
2013-03-05 21:48:00,63.9,60.9,30.07,SSE,153,4.0,0.0,90,0.00,,,0.00,WeatherTracker,2013-03-06 02:48:00,
2013-03-05 21:53:00,64.0,61.0,30.07,SSW,194,0.0,0.0,90,0.00,,,0.00,WeatherTracker,2013-03-06 02:53:00,
2013-03-05 21:58:00,64.0,61.0,30.07,South,186,1.0,0.0,90,0.00,,,0.00,WeatherTracker,2013-03-06 02:58:00,
2013-03-05 22:03:00,64.0,61.0,30.07,South,172,0.0,0.0,90,0.00,,,0.00,WeatherTracker,2013-03-06 03:03:00,
2013-03-05 22:08:00,64.0,61.0,30.07,SSE,167,1.0,0.0,90,0.00,,,0.00,WeatherTracker,2013-03-06 03:08:00,
2013-03-05 22:13:00,64.1,61.1,30.07,South,174,3.0,0.0,90,0.00,,,0.00,WeatherTracker,2013-03-06 03:13:00,
2013-03-05 22:18:00,64.1,61.1,30.07,SSE,167,0.0,0.0,90,0.00,,,0.00,WeatherTracker,2013-03-06 03:18:00,
2013-03-05 22:23:00,64.1,61.1,30.07,South,190,5.0,0.0,90,0.00,,,0.00,WeatherTracker,2013-03-06 03:23:00,
2013-03-05 22:28:00,64.2,61.5,30.07,SSE,167,1.0,0.0,91,0.00,,,0.00,WeatherTracker,2013-03-06 03:28:00,
2013-03-05 22:33:00,64.2,61.2,30.07,South,190,1.0,0.0,90,0.00,,,0.00,WeatherTracker,2013-03-06 03:33:00,
2013-03-05 22:38:00,64.2,61.5,30.07,South,187,1.0,0.0,91,0.00,,,0.00,WeatherTracker,2013-03-06 03:38:00,
2013-03-05 22:43:00,64.3,61.6,30.07,South,190,1.0,0.0,91,0.00,,,0.00,WeatherTracker,2013-03-06 03:43:00,
2013-03-05 22:48:00,64.2,61.5,30.07,SSW,210,0.0,0.0,91,0.00,,,0.00,WeatherTracker,2013-03-06 03:48:00,
2013-03-05 22:53:00,64.2,61.5,30.07,South,188,1.0,0.0,91,0.00,,,0.00,WeatherTracker,2013-03-06 03:53:00,
2013-03-05 22:58:00,64.3,61.6,30.06,South,183,0.0,0.0,91,0.00,,,0.00,WeatherTracker,2013-03-06 03:58:00,
2013-03-05 23:03:00,64.3,61.6,30.06,South,190,2.0,0.0,91,0.00,,,0.00,WeatherTracker,2013-03-06 04:03:00,
2013-03-05 23:08:00,64.3,61.6,30.06,South,182,4.0,0.0,91,0.00,,,0.00,WeatherTracker,2013-03-06 04:08:00,
2013-03-05 23:13:00,64.3,61.6,30.06,SW,219,0.0,0.0,91,0.00,,,0.00,WeatherTracker,2013-03-06 04:13:00,
2013-03-05 23:18:00,64.3,61.9,30.06,SSE,163,3.0,0.0,92,0.00,,,0.00,WeatherTracker,2013-03-06 04:18:00,
2013-03-05 23:23:00,64.3,61.9,30.06,South,172,0.0,0.0,92,0.00,,,0.00,WeatherTracker,2013-03-06 04:23:00,
2013-03-05 23:28:00,64.3,61.9,30.06,SSW,205,0.0,0.0,92,0.00,,,0.00,WeatherTracker,2013-03-06 04:28:00,
2013-03-05 23:34:00,64.3,61.9,30.06,South,190,1.0,0.0,92,0.00,,,0.00,WeatherTracker,2013-03-06 04:34:00,
2013-03-05 23:39:00,64.4,62.0,30.06,SSW,198,4.0,0.0,92,0.00,,,0.00,WeatherTracker,2013-03-06 04:39:00,
2013-03-05 23:44:00,64.6,62.2,30.06,South,184,0.0,0.0,92,0.00,,,0.00,WeatherTracker,2013-03-06 04:44:00,
2013-03-05 23:49:00,64.7,62.3,30.06,South,190,0.0,0.0,92,0.00,,,0.00,WeatherTracker,2013-03-06 04:49:00,
2013-03-05 23:54:00,64.9,62.2,30.05,SSW,198,0.0,0.0,91,0.00,,,0.00,WeatherTracker,2013-03-06 04:54:00,
2013-03-05 23:59:00,64.9,62.2,30.05,South,190,1.0,0.0,91,0.00,,,0.00,WeatherTracker,2013-03-06 04:59:00,